Time,TemperatureF,DewpointF,PressureIn,WindDirection,WindDirectionDegrees,WindSpeedMPH,WindSpeedGustMPH,Humidity,HourlyPrecipIn,Conditions,Clouds,dailyrainin,SolarRadiationWatts/m^2,SoftwareType,DateUTC
2013-05-07 00:00:00,67.2,58.6,30.02,NW,315,6.0,7.0,74,0.00,,,0.00,0,Wunderground v.1.15,2013-05-07 04:00:00,
2013-05-07 00:30:00,67.0,58.4,30.02,WNW,300,5.0,8.0,74,0.00,,,0.00,0,Wunderground v.1.15,2013-05-07 04:30:00,
2013-05-07 01:00:00,67.2,58.2,30.01,WNW,288,6.0,7.0,73,0.00,,,0.00,0,Wunderground v.1.15,2013-05-07 05:00:00,
2013-05-07 01:30:00,67.3,58.0,30.01,West,277,8.0,8.0,72,0.00,,,0.00,0,Wunderground v.1.15,2013-05-07 05:30:00,
2013-05-07 02:00:00,67.2,58.6,30.00,WNW,301,2.0,2.0,74,0.00,,,0.00,0,Wunderground v.1.15,2013-05-07 06:00:00,
2013-05-07 02:30:00,67.1,57.8,30.00,West,281,8.0,8.0,72,0.00,,,0.00,0,Wunderground v.1.15,2013-05-07 06:30:00,
2013-05-07 03:00:00,67.4,57.7,30.00,WNW,284,7.0,7.0,71,0.00,,,0.00,0,Wunderground v.1.15,2013-05-07 07:00:00,
2013-05-07 03:30:00,67.3,58.0,29.99,WNW,286,6.0,6.0,72,0.00,,,0.00,0,Wunderground v.1.15,2013-05-07 07:30:00,
2013-05-07 04:00:00,67.0,58.4,29.99,WNW,291,5.0,5.0,74,0.00,,,0.00,0,Wunderground v.1.15,2013-05-07 08:00:00,
2013-05-07 04:30:00,67.0,58.1,29.99,WNW,288,0.0,0.0,73,0.00,,,0.00,0,Wunderground v.1.15,2013-05-07 08:30:00,
2013-05-07 05:00:00,66.8,57.9,29.99,WNW,288,0.0,0.0,73,0.00,,,0.00,0,Wunderground v.1.15,2013-05-07 09:00:00,
2013-05-07 05:30:00,65.4,58.7,30.00,NNE,25,0.0,0.0,79,0.00,,,0.00,0,Wunderground v.1.15,2013-05-07 09:30:00,
2013-05-07 06:00:00,65.3,59.0,30.00,East,91,1.0,4.0,80,0.00,,,0.00,0,Wunderground v.1.15,2013-05-07 10:00:00,
2013-05-07 06:30:00,65.0,59.0,30.01,East,90,0.0,0.0,81,0.00,,,0.00,0,Wunderground v.1.15,2013-05-07 10:30:00,
2013-05-07 07:00:00,65.3,59.7,30.02,ESE,103,2.0,2.0,82,0.00,,,0.00,14,Wunderground v.1.15,2013-05-07 11:00:00,
2013-05-07 07:30:00,65.9,59.9,30.03,ESE,105,1.0,1.0,81,0.00,,,0.00,40,Wunderground v.1.15,2013-05-07 11:30:00,
2013-05-07 08:00:00,68.0,57.4,30.04,West,262,7.0,7.0,69,0.00,,,0.00,207,Wunderground v.1.15,2013-05-07 12:00:00,
2013-05-07 08:30:00,68.4,57.0,30.04,West,270,4.0,4.0,67,0.00,,,0.00,299,Wunderground v.1.15,2013-05-07 12:30:00,
2013-05-07 09:00:00,68.5,57.1,30.04,WSW,249,4.0,10.0,67,0.00,,,0.00,401,Wunderground v.1.15,2013-05-07 13:00:00,
2013-05-07 09:30:00,69.2,56.9,30.05,SSW,205,6.0,6.0,65,0.00,,,0.00,480,Wunderground v.1.15,2013-05-07 13:30:00,
2013-05-07 10:00:00,69.6,58.2,30.06,South,186,3.0,3.0,67,0.00,,,0.00,577,Wunderground v.1.15,2013-05-07 14:00:00,
2013-05-07 10:30:00,69.5,58.1,30.06,SW,220,1.0,8.0,67,0.00,,,0.00,673,Wunderground v.1.15,2013-05-07 14:30:00,
2013-05-07 11:00:00,69.8,57.5,30.06,SW,224,9.0,10.0,65,0.00,,,0.00,759,Wunderground v.1.15,2013-05-07 15:00:00,
2013-05-07 11:30:00,70.2,57.0,30.06,SW,224,11.0,11.0,63,0.00,,,0.00,826,Wunderground v.1.15,2013-05-07 15:30:00,
2013-05-07 12:00:00,70.3,58.8,30.06,SW,229,11.0,14.0,67,0.00,,,0.00,881,Wunderground v.1.15,2013-05-07 16:00:00,
2013-05-07 12:30:00,69.8,58.8,30.06,WSW,244,13.0,14.0,68,0.00,,,0.00,919,Wunderground v.1.15,2013-05-07 16:30:00,
2013-05-07 13:00:00,70.3,59.2,30.06,SW,236,12.0,12.0,68,0.00,,,0.00,946,Wunderground v.1.15,2013-05-07 17:00:00,
2013-05-07 13:30:00,70.6,58.3,30.05,WSW,250,12.0,14.0,65,0.00,,,0.00,956,Wunderground v.1.15,2013-05-07 17:30:00,
2013-05-07 14:00:00,70.7,59.2,30.05,West,259,14.0,14.0,67,0.00,,,0.00,940,Wunderground v.1.15,2013-05-07 18:00:00,
2013-05-07 14:30:00,71.0,59.1,30.04,West,261,13.0,13.0,66,0.00,,,0.00,916,Wunderground v.1.15,2013-05-07 18:30:00,
2013-05-07 15:00:00,71.2,59.3,30.04,SW,235,14.0,14.0,66,0.00,,,0.00,875,Wunderground v.1.15,2013-05-07 19:00:00,
2013-05-07 15:30:00,71.1,58.7,30.02,WSW,240,14.0,16.0,65,0.00,,,0.00,817,Wunderground v.1.15,2013-05-07 19:30:00,
2013-05-07 16:00:00,71.3,59.4,30.02,WSW,249,15.0,15.0,66,0.00,,,0.00,747,Wunderground v.1.15,2013-05-07 20:00:00,
2013-05-07 16:30:00,71.5,60.0,30.02,WSW,237,14.0,16.0,67,0.00,,,0.00,664,Wunderground v.1.15,2013-05-07 20:30:00,
2013-05-07 17:00:00,71.6,60.5,30.02,WSW,255,14.0,16.0,68,0.00,,,0.00,575,Wunderground v.1.15,2013-05-07 21:00:00,
2013-05-07 17:30:00,71.5,60.0,30.01,WSW,250,16.0,16.0,67,0.00,,,0.00,475,Wunderground v.1.15,2013-05-07 21:30:00,
2013-05-07 18:00:00,71.5,60.4,30.01,West,267,15.0,16.0,68,0.00,,,0.00,385,Wunderground v.1.15,2013-05-07 22:00:00,
2013-05-07 18:30:00,71.6,61.3,30.01,NW,325,17.0,17.0,70,0.00,,,0.00,271,Wunderground v.1.15,2013-05-07 22:30:00,
2013-05-07 19:00:00,71.7,60.6,30.01,West,266,15.0,15.0,68,0.00,,,0.00,165,Wunderground v.1.15,2013-05-07 23:00:00,
2013-05-07 19:30:00,71.7,61.0,30.01,West,279,12.0,13.0,69,0.00,,,0.00,76,Wunderground v.1.15,2013-05-07 23:30:00,
2013-05-07 20:00:00,71.3,61.0,30.03,West,267,10.0,10.0,70,0.00,,,0.00,12,Wunderground v.1.15,2013-05-08 00:00:00,
2013-05-07 20:30:00,71.2,61.3,30.04,West,276,10.0,10.0,71,0.00,,,0.00,0,Wunderground v.1.15,2013-05-08 00:30:00,
2013-05-07 21:00:00,71.1,61.2,30.04,WNW,285,10.0,10.0,71,0.00,,,0.00,0,Wunderground v.1.15,2013-05-08 01:00:00,
2013-05-07 21:30:00,70.9,61.0,30.05,WNW,290,10.0,11.0,71,0.00,,,0.00,0,Wunderground v.1.15,2013-05-08 01:30:00,
2013-05-07 22:00:00,70.8,60.9,30.05,WNW,285,7.0,7.0,71,0.00,,,0.00,0,Wunderground v.1.15,2013-05-08 02:00:00,
2013-05-07 22:30:00,70.8,61.3,30.06,WNW,287,10.0,10.0,72,0.00,,,0.00,0,Wunderground v.1.15,2013-05-08 02:30:00,
2013-05-07 23:00:00,70.8,62.5,30.06,WNW,300,8.0,8.0,75,0.00,,,0.00,0,Wunderground v.1.15,2013-05-08 03:00:00,
2013-05-07 23:30:00,70.9,62.6,30.06,WNW,301,9.0,9.0,75,0.00,,,0.00,0,Wunderground v.1.15,2013-05-08 03:30:00,